Previsão horária em Senec

Hoje, 30 Novembro, Segunda-feira

Tempo Temperatura Precipitação Vento Pressão Humidade
00:00 -2°C° 0 mm 2 m/s 756 mmHg 92%
01:00 -2°C° 0 mm 3 m/s 756 mmHg 93%
02:00 -2°C° 0 mm 3 m/s 756 mmHg 93%
03:00 -2°C° 0 mm 2 m/s 756 mmHg 92%
04:00 -2°C° 0 mm 2 m/s 756 mmHg 92%
05:00 -2°C° 0 mm 2 m/s 757 mmHg 92%
06:00 -2°C° 0 mm 2 m/s 757 mmHg 92%
07:00 0°C° 0 mm 1 m/s 757 mmHg 92%
08:00 +1°C° 0 mm 1 m/s 758 mmHg 88%
09:00 +2°C° 0 mm 1 m/s 758 mmHg 83%
10:00 +3°C° 0 mm 1 m/s 759 mmHg 78%
11:00 +3°C° 0 mm 1 m/s 758 mmHg 75%
12:00 +4°C° 0 mm 1 m/s 758 mmHg 71%
13:00 +3°C° 0 mm 0 m/s 758 mmHg 73%
14:00 +3°C° 0 mm 1 m/s 758 mmHg 76%
15:00 +2°C° 0 mm 1 m/s 758 mmHg 80%
16:00 +2°C° 0 mm 1 m/s 758 mmHg 84%
17:00 +1°C° 0 mm 1 m/s 758 mmHg 86%
18:00 +1°C° 0 mm 1 m/s 758 mmHg 88%
19:00 -2°C° 0 mm 2 m/s 758 mmHg 89%
20:00 -2°C° 0 mm 2 m/s 758 mmHg 91%
21:00 -2°C° 0 mm 2 m/s 758 mmHg 92%
22:00 -3°C° 0 mm 2 m/s 758 mmHg 93%
23:00 -3°C° 0 mm 2 m/s 757 mmHg 93%

Amanhã, 1 Dezembro, Terça-feira

Tempo Temperatura Precipitação Vento Pressão Humidade
00:00 -4°C° 0 mm 3 m/s 757 mmHg 93%
01:00 -4°C° 0 mm 3 m/s 757 mmHg 93%
02:00 -4°C° 0 mm 3 m/s 756 mmHg 91%
03:00 -2°C° 0 mm 3 m/s 756 mmHg 88%
04:00 -3°C° 0 mm 4 m/s 756 mmHg 86%
05:00 -3°C° 0 mm 4 m/s 756 mmHg 86%
06:00 -3°C° 0 mm 4 m/s 755 mmHg 86%
07:00 -3°C° 0 mm 4 m/s 755 mmHg 87%
08:00 -3°C° 0 mm 4 m/s 755 mmHg 83%
09:00 -2°C° 0 mm 5 m/s 755 mmHg 80%
10:00 -2°C° 0 mm 5 m/s 755 mmHg 76%
11:00 -1°C° 0 mm 5 m/s 755 mmHg 74%
12:00 -1°C° 0 mm 5 m/s 755 mmHg 71%
13:00 0°C° 0 mm 5 m/s 755 mmHg 68%
14:00 -1°C° 0 mm 4 m/s 754 mmHg 71%
15:00 -2°C° 0 mm 4 m/s 754 mmHg 74%
16:00 -2°C° 0 mm 3 m/s 754 mmHg 77%
17:00 -2°C° 0 mm 3 m/s 755 mmHg 78%
18:00 -2°C° 0 mm 3 m/s 755 mmHg 79%
19:00 -4°C° 0 mm 3 m/s 755 mmHg 80%
20:00 -4°C° 0 mm 3 m/s 755 mmHg 81%
21:00 -4°C° 0 mm 3 m/s 755 mmHg 82%
22:00 -4°C° 0 mm 3 m/s 755 mmHg 83%
23:00 -3°C° 0 mm 2 m/s 756 mmHg 83%

Depois de amanhã, 2 Dezembro, Quarta-feira

Tempo Temperatura Precipitação Vento Pressão Humidade
00:00 -3°C° 0 mm 2 m/s 756 mmHg 84%
01:00 -4°C° 0 mm 2 m/s 756 mmHg 84%
02:00 -4°C° 0 mm 2 m/s 755 mmHg 84%
03:00 -4°C° 0 mm 2 m/s 755 mmHg 84%
04:00 -4°C° 0 mm 2 m/s 755 mmHg 84%
05:00 -4°C° 0 mm 2 m/s 755 mmHg 83%
06:00 -4°C° 0 mm 2 m/s 755 mmHg 82%
07:00 -4°C° 0 mm 2 m/s 755 mmHg 82%
08:00 -3°C° 0 mm 2 m/s 755 mmHg 77%
09:00 -2°C° 0 mm 2 m/s 755 mmHg 72%
10:00 -1°C° 0 mm 2 m/s 754 mmHg 67%
11:00 -1°C° 0 mm 2 m/s 754 mmHg 63%
12:00 +1°C° 0 mm 2 m/s 754 mmHg 60%
13:00 +1°C° 0 mm 3 m/s 753 mmHg 57%
14:00 +1°C° 0 mm 2 m/s 753 mmHg 60%
15:00 -1°C° 0 mm 2 m/s 752 mmHg 63%
16:00 -1°C° 0 mm 2 m/s 752 mmHg 67%
17:00 -2°C° 0 mm 2 m/s 752 mmHg 67%
18:00 -2°C° 0 mm 3 m/s 752 mmHg 68%
19:00 -2°C° 0 mm 3 m/s 752 mmHg 68%
20:00 -2°C° 0 mm 3 m/s 751 mmHg 68%
21:00 -2°C° 0 mm 3 m/s 751 mmHg 68%
22:00 -3°C° 0 mm 4 m/s 751 mmHg 68%
23:00 -3°C° 0 mm 4 m/s 751 mmHg 66%

3 Dezembro, Quinta-feira

Tempo Temperatura Precipitação Vento Pressão Humidade
00:00 -3°C° 0 mm 4 m/s 751 mmHg 64%
01:00 -3°C° 0 mm 4 m/s 751 mmHg 62%
02:00 -3°C° 0 mm 4 m/s 750 mmHg 62%
03:00 -3°C° 0 mm 4 m/s 750 mmHg 62%
04:00 -2°C° 0 mm 3 m/s 749 mmHg 62%
05:00 -3°C° 0 mm 4 m/s 749 mmHg 60%
06:00 -2°C° 0 mm 4 m/s 749 mmHg 58%
07:00 -2°C° 0 mm 4 m/s 748 mmHg 56%
08:00 -2°C° 0.2 mm 4 m/s 748 mmHg 60%
09:00 -2°C° 0.2 mm 4 m/s 748 mmHg 64%
10:00 -2°C° 0.2 mm 4 m/s 748 mmHg 67%
11:00 -2°C° 0.2 mm 4 m/s 747 mmHg 70%
12:00 -2°C° 0.2 mm 4 m/s 747 mmHg 72%
13:00 -2°C° 0.2 mm 4 m/s 746 mmHg 74%
14:00 -2°C° 0.3 mm 4 m/s 746 mmHg 79%
15:00 -2°C° 0.3 mm 4 m/s 745 mmHg 84%
16:00 -2°C° 0.3 mm 4 m/s 745 mmHg 89%
17:00 -2°C° 0.2 mm 4 m/s 745 mmHg 86%
18:00 -2°C° 0.2 mm 4 m/s 745 mmHg 84%
19:00 -2°C° 0.2 mm 4 m/s 744 mmHg 81%
20:00 -1°C° 0.1 mm 4 m/s 744 mmHg 80%
21:00 -1°C° 0.1 mm 4 m/s 744 mmHg 80%
22:00 -1°C° 0.1 mm 4 m/s 743 mmHg 80%
23:00 -1°C° 0.2 mm 5 m/s 743 mmHg 83%

4 Dezembro, Sexta-feira

Tempo Temperatura Precipitação Vento Pressão Humidade
00:00 -1°C° 0.2 mm 5 m/s 742 mmHg 87%
01:00 0°C° 0.2 mm 5 m/s 741 mmHg 90%
02:00 -1°C° 0.1 mm 6 m/s 741 mmHg 87%
03:00 -1°C° 0.1 mm 6 m/s 740 mmHg 84%
04:00 -1°C° 0.1 mm 7 m/s 740 mmHg 81%
05:00 -1°C° 0.1 mm 7 m/s 739 mmHg 80%
06:00 -1°C° 0.1 mm 7 m/s 739 mmHg 80%
07:00 -1°C° 0.1 mm 7 m/s 739 mmHg 80%
08:00 0°C° 0.1 mm 7 m/s 738 mmHg 81%
09:00 0°C° 0.1 mm 7 m/s 738 mmHg 82%
10:00 0°C° 0.1 mm 7 m/s 738 mmHg 84%
11:00 0°C° 0.6 mm 7 m/s 738 mmHg 86%
12:00 0°C° 0.6 mm 7 m/s 737 mmHg 88%
13:00 +2°C° 0.6 mm 7 m/s 737 mmHg 90%
14:00 +2°C° 0.3 mm 7 m/s 737 mmHg 90%
15:00 +2°C° 0.3 mm 7 m/s 737 mmHg 89%
16:00 +3°C° 0.3 mm 7 m/s 736 mmHg 88%
17:00 +3°C° 0 mm 7 m/s 737 mmHg 89%
18:00 +2°C° 0 mm 7 m/s 737 mmHg 89%
19:00 +2°C° 0 mm 7 m/s 737 mmHg 89%
20:00 +2°C° 0 mm 7 m/s 737 mmHg 89%
21:00 +2°C° 0 mm 6 m/s 737 mmHg 89%
22:00 +2°C° 0 mm 5 m/s 738 mmHg 89%
23:00 +2°C° 0 mm 6 m/s 737 mmHg 88%

5 Dezembro, Sábado

Tempo Temperatura Precipitação Vento Pressão Humidade
00:00 +3°C° 0 mm 7 m/s 737 mmHg 87%
01:00 +2°C° 0 mm 8 m/s 737 mmHg 86%
02:00 +2°C° 0 mm 8 m/s 737 mmHg 85%
03:00 +4°C° 0 mm 8 m/s 737 mmHg 83%
04:00 +4°C° 0 mm 8 m/s 737 mmHg 81%
05:00 +3°C° 0 mm 9 m/s 737 mmHg 80%
06:00 +5°C° 0 mm 9 m/s 737 mmHg 79%
07:00 +5°C° 0 mm 9 m/s 737 mmHg 78%
08:00 +5°C° 0 mm 9 m/s 737 mmHg 76%
09:00 +6°C° 0 mm 9 m/s 738 mmHg 75%
10:00 +6°C° 0 mm 10 m/s 738 mmHg 73%
11:00 +7°C° 0 mm 10 m/s 738 mmHg 71%
12:00 +7°C° 0 mm 10 m/s 737 mmHg 69%
13:00 +8°C° 0 mm 11 m/s 737 mmHg 67%
14:00 +8°C° 0 mm 11 m/s 737 mmHg 67%
15:00 +8°C° 0 mm 11 m/s 737 mmHg 68%
16:00 +8°C° 0 mm 10 m/s 737 mmHg 68%
17:00 +8°C° 0.1 mm 10 m/s 736 mmHg 69%
18:00 +8°C° 0.1 mm 11 m/s 736 mmHg 69%
19:00 +8°C° 0.1 mm 11 m/s 736 mmHg 70%
20:00 +7°C° 0.1 mm 10 m/s 736 mmHg 70%
21:00 +7°C° 0.1 mm 10 m/s 736 mmHg 70%
22:00 +7°C° 0.1 mm 10 m/s 735 mmHg 70%
23:00 +7°C° 0.2 mm 9 m/s 735 mmHg 73%
Mostrar mais

Necessitamos do seu Consentimento

A Meteoprog e os seus Fornecedores de Serviços podem armazenar e aceder a dados pessoais como cookies, identificadores do dispositivo ou outras tecnologias semelhantes existentes no seu dispositivo e processar estes dados para personalizar conteúdos e anúncios, assim como funcionalidades nas redes sociais e análise de tráfego.

  • Armazenar e/ou aceder a informações no seu dispositivo

    Os cookies, identificadores do dispositivo ou outras informações podem ser armazenados ou acedidos no seu dispositivo, para os fins acima indicados.

  • Anúncios e conteúdos personalizados, medição de anúncios e conteúdos, dados sobre o público-alvo e desenvolvimento de produtos

    Os anúncios e os conteúdos podem ser personalizados com base num perfil. Podem ser adicionados dados adicionais para uma maior personalização dos anúncios e dos conteúdos. A eficácia dos anúncios e dos conteúdos pode ser medida. Podem ser obtidas informações sobre o público que visualizou os anúncios e os conteúdos. Estes dados podem ser usados para desenvolver ou melhorar sistemas, softwares ou a experiência do utilizador.

Ao clicar em "Eu concordo”, permitirá o uso de cookies, identificadores do dispositivo e web beacons mencionados ou outras tecnologias semelhantes. As configurações do navegador do seu dispositivo podem ser alteradas.

Para certos fins, podem ser invocados interesses legítimos ao invés de consentimento. Pode ler mais informação sobre este assunto na nossa Política de Privacidade e Cookies.